Location: Passo di Treia
(43.2833°N, 13.3333°E)
Time: 18:54:00
(UTC+00:00)

Meteor 1-19 Rocket - Pass Details

Date: 09 December 2019
Orbit: 816 x 919 km, 81.2° (Epoch: 28 January)

Event Time Altitude Azimuth Distance (km) Brightness Sun altitude
Rises 17:40:15 0° 178° (S) 3,393 7.5 -22.7°
Reaches altitude 10° 17:42:42 10° 175° (S) 2,448 6.7 -23.2°
Maximum altitude 17:48:09 62° 96° (E) 926 4.1 -24.1°
Enters shadow 17:48:23 62° 82° (E) 931 4.0 -24.2°
